Showing default

SECOR 1B, 729

Orbit data source: Space-Track

SECOR 1B, 729 is an American payload satellite in LEO that was launched on Sat, 11 Jan 1964 UTC via a THOR SLV-2A AGENA D launch vehicle from the Air Force Western Test Range (AFWTR). Payload-class satellites include a variety of spacecraft equipped with specific instruments for various scientific and technological missions. These include communications satellites like Starlink; space stations such as the ISS; scientific satellites like the Hubble; Earth observation satellites from companies like Planet Labs, Umbra, and HawkEye 360; GPS; miniature CubeSats for education and research; and military/defense satellites.

Loading next visibility...
Identifier
729, 1964-001C
Orbit
LEO
Country
Flag of USUS
Related business
Manufacturer
ITT
Mission
Spacecraft
Bus & Motor
SECOR, Unknown motor
Mass
18 kg wet, 18 kg dry
Launch date (UTC)
1964-01-11 (62 years ago)
Launch vehicle
THOR SLV-2A AGENA D
Launch site
Air Force Western Test Range (AFWTR)
Object type
Payload
Rocket body
Debris
Shape & HBR
Unknown
Radar Cross Section
Medium (>0.1 m² and <1 m²)

Expand to show TLE details & history
Last TLE update: 17 hours ago

TLE from 17 hours ago
0 SECOR 1B
1 00729U 64001C   26127.10044778 -.00000007  00000-0  34451-4 0  9997
2 00729  69.9028  20.9594 0012094 138.7545 221.4475 13.95222030170978
Epoch: 2026-05-07T02:24Z
TLE epoch observation values (Epoch: 2026-05-07T02:24:38.688Z)
Latitude
-0.00005°
Longitude
119.84675°
Altitude
919.305 km
Speed
7.389 km/s
True Right ascension
01h 23m 50s
True Declination
0° 00' 00"
Sunlit
Object was in daylight at epoch
Visualization orbit readout
Latitude
Unknown
Longitude
Unknown
Altitude
Unknown
Speed
Unknown
Apparent Right ascension
Unknown
Apparent Declination
Unknown
Sunlit
N/A
Visualization observer readout
Local Sidereal Time
03:22:51
Azimuth
Unknown
Elevation
Unknown
Doppler factor
Unknown
Orbital elements
Apogee altitude
917.254 km
Perigee altitude
899.629 km
Semi-major axis
7,286.578 km
Eccentricity
0.00121
Inclination
69.9028°
RAAN
20.9594°
Arg. of periapsis
138.7545°
True anomaly
221.35587°
Mean anomaly
221.4475°
Eccentric anomaly
221.40167°
Mean motion
3.48946 °/min
Orbital period
103.17 mins
BSTAR
0.000034451
Loading maneuver chart data...
Computing Atmospheric mass density...
Loading historical data...
Loading historical data...
Loading historical data...
Loading historical data...
Loading historical data...
Loading historical data...
Loading historical data...
Other satellites on launch #1 in the year 1964 (1964-01-11 UTC)

Documentation

Showing up to 5 results
|